Location: Diebersbach
(48.5163°N, 8.0558°E)
Time: 04:04:49
(UTC+00:00)

USA 229 - Pass Details

Date: 30 October 2021
Orbit: 946 x 1266 km, 63.4° (Epoch: 25 November)

Event Time Altitude Azimuth Distance (km) Brightness Sun altitude
Rises 16:37:31 0° 206° (SSW) 3,629 7.2 -5.0°
Reaches altitude 10° 16:40:01 10° 203° (SSW) 2,709 6.4 -5.4°
Maximum altitude 16:46:15 63° 124° (SE) 1,125 3.7 -6.4°
Drops below altitude 10° 16:52:58 10° 45° (NE) 2,909 5.5 -7.4°
Enters shadow 16:55:02 - 43° (NE) 3,663 6.0 -7.8°
